SCP
0 0 0 0 0 0 0 0 0 0 0 0 0 0 0 0 0 0 0 0 0 0 0 0 0 0 0 0 0 0 0 0 0 0 0 0 0 -0 -0 -0 0 0 0 0 0 0 0 0 0 0 -0 -0 0 -0
0 0 0 0 0 0 0 0 0 0 0 0 0 0 0 0 0 0 0 0 0 0 0 0 0 0 0 0 0 0 0 0 0 0 0 0 0 0 -0 -0 -0 0 0 0 0 0 0 -0 -0 0 0 -0 0 -0
0 0 0 0 0 0 0 0 0 0 0 0 0 0 0 0 0 0 0 0 0 0 0 0 0 0 0 0 0 0 0 0 0 0 0 0 0 0 -0 -0 -0 0 0 0 0 0 0 0 0 0 0 -0 0 -0
0 0 0 0 0 0 0 0 0 0 0 0 0 0 0 0 0 0 0 0 0 0 0 0 0 0 0 0 0 -0 0 0 0 0 0 0 0 0 0 -0 -0 -0 -0 0 0 0 0 -0 -0 0 0 0 -0 0
0 0 0 0 0 0 0 0 0 0 0 0 0 0 0 0 0 0 0 0 0 0 0 0 0 0 0 0 0 0 0 0 -0 0 0 0 0 0 0 0 -0 0 0 0 0 0 0 -0 -0 -0 0 -0 -0 0
0 0 0 0 0 0 0 0 0 0 0 0 0 0 0 0 0 0 0 0 0 0 0 0 0 0 0 0 0 0 0 0 0 0 0 0 0 0 0 -0 -0 0 0 0 0 0 0 -0 0 -0 0 0 0 0
0 0 0 0 0 0 0 0 0 0 0 0 0 0 0 0 0 0 0 0 0 0 0 0 0 0 0 0 0 0 0 0 0 0 0 0 0 0 0 0 0 0 0 0 0 0 0 -0 -0 0 0 -0 0 0
0 0 0 0 0 0 0 0 0 0 0 0 0 0 0 0 0 0 0 0 0 0 0 0 0 0 0 0 0 0 0 0 0 0 0 0 0 0 0 0 0 0 0 -0 0 0 0 -0 -0 0 -0 0 -0 0
0 0 0 0 0 0 0 0 0 0 0 0 0 0 0 0 0 0 0 0 0 0 0 0 0 0 0 0 0 0 0 0 0 0 0 0 0 -0 -0 0 -0 0 -0 0 -0 0 -0 -0 0 0 0 -0 0 0
0 0 0 0 0 0 0 0 0 0 0 0 0 0 0 0 0 0 0 0 0 0 0 0 0 0 0 0 0 0 0 0 0 0 0 0 -0 -0 -0 0 0 0 0 0 -0 -0 -0 0 0 0 0 0 0 0
0 0 0 0 0 0 0 0 0 0 0 0 0 0 0 0 0 0 0 0 0 0 0 0 0 0 -0 0 0 0 0 0 0 0 0 -0 -0 0 0 0 0 0 0 -0 0 0 0 0 -0 -0 0 0 0 0
0 0 0 0 0 0 0 0 0 0 0 0 0 0 0 0 0 0 0 0 0 0 0 0 0 0 0 0 0 0 0 0 0 0 0 -0 0 0 0 0 0 0 0 -0 0 0 0 0 -0 -0 -0 0 0 0
0 0 0 0 0 0 0 0 0 0 0 0 0 0 0 0 0 0 0 0 0 0 0 0 0 0 0 0 0 0 0 0 0 0 -0 -0 0 0 0 0 0 0 0 -0 0 0 0 0 0 -0 -0 -0 0 0
0 0 0 0 0 0 0 0 0 0 0 0 0 0 0 0 0 0 0 0 -0 -0 -0 0 0 0 0 0 0 0 0 0 0 0 0 0 0 0 0 0 0 0 0 -0 -0 0 0 0 0 -0 -0 -0 -0 -0
0 0 0 0 0 0 0 0 0 0 0 0 0 0 0 0 0 0 0 0 0 0 -0 -0 0 0 0 0 -0 0 0 0 0 0 0 0 0 0 0 -0 0 0 -0 -0 -0 0 0 0 0 0 -0 -0 0 0
0 0 0 0 0 0 0 0 0 0 0 0 0 0 0 0 0 0 0 0 0 0 0 0 0 0 0 0 -0 -0 -0 -0 0 0 0 -0 -0 0 -0 0 0 0 0 -0 -0 0 0 0 0 0 -0 0 0 0
0 0 0 0 0 -0 -0 0 0 0 0 0 0 0 0 0 0 0 0 0 0 0 0 0 0 0 0 0 -0 0 0 0 0 0 0 -0 -0 -0 0 0 0 0 -0 0 0 0 0 0 -0 -0 0 -0 0 0
0 0 0 0 0 0 0 0 0 0 0 0 0 0 0 0 0 0 0 0 0 0 0 0 -0 0 0 0 0 0 0 0 0 0 0 0 -0 -0 -0 0 -0 -0 0 -0 0 0 0 0 0 -0 -0 -0 -0 0
0 0 0 0 0 0 0 0 0 0 0 0 0 0 0 0 0 0 0 0 -0 0 0 0 0 0 0 -0 -0 -0 -0 -0 0 0 0 0 0 -0 -0 0 -0 -0 0 0 -0 0 0 -0 -0 0 -0 -0 -0 -0
0 0 0 -0 -0 0 0 0 0 0 0 0 0 0 0 -0 -0 0 0 0 0 -0 -0 0 0 0 0 0 -0 -0 -0 -0 -0 0 0 0 0 0 -0 -0 0 -0 -0 0 0 -0 -0 0 -0 -0 -0 0 -0 -0
-0 0 0 -0 0 -0 0 0 0 0 0 -0 0 0 -0 -0 -0 -0 -0 -0 0 0 -0 -0 -0 -0 0 0 -0 -0 0 0 0 0 0 0 0 0 0 0 0 0 -0 0 0 0 0 0 0 -0 -0 -0 0 0
0 0 0 0 0 0 0 0 -0 -0 0 -0 0 -0 -0 -0 -0 0 0 -0 -0 0 -0 0 0 0 0 0 0 0 0 0 0 0 0 0 0 0 0 0 0 0 0 -0 0 0 -0 0 0 -0 -0 -0 -0 0
0 0 0 0 0 0 0 0 0 0 0 -0 -0 -0 -0 -0 -0 0 0 -0 0 -0 -0 -0 -0 -0 0 0 0 0 0 0 0 0 0 0 0 0 0 0 0 0 0 0 0 0 0 -0 0 -0 -0 -0 -0 -0
0 0 0 0 0 0 0 0 0 0 0 0 -0 -0 -0 -0 0 0 0 0 -0 0 0 -0 -0 -0 0 0 0 0 0 -0 0 0 0 0 0 0 0 0 0 -0 0 0 0 -0 -0 -0 -0 -0 -0 -0 0 0
0 0 0 0 0 0 0 0 0 0 0 0 0 0 0 0 0 0 0 0 0 -0 0 0 -0 -0 0 0 0 0 0 -0 0 0 0 0 0 0 0 0 0 0 0 0 0 -0 -0 -0 -0 -0 -0 -0 -0 -0
0 0 0 0 0 0 0 0 0 0 0 0 0 0 -0 0 0 0 0 0 0 0 -0 -0 -0 -0 -0 0 0 0 0 0 0 0 0 0 0 0 0 0 0 0 0 0 -0 0 0 -0 -0 -0 -0 -0 -0 -0
0 0 0 0 0 0 0 0 0 0 0 0 0 0 0 0 0 0 0 0 -0 -0 -0 -0 0 0 0 -0 -0 0 0 0 0 0 0 0 0 0 0 0 0 0 0 0 0 0 -0 0 0 -0 -0 -0 -0 -0
0 0 0 0 0 0 0 0 0 0 0 0 0 0 0 0 0 0 0 0 0 0 -0 -0 -0 0 0 0 -0 0 0 0 0 0 0 0 0 0 0 0 0 0 0 0 0 0 0 -0 0 0 -0 -0 -0 -0
0 0 0 0 0 0 0 0 0 0 -0 -0 0 0 0 0 0 0 0 0 0 0 0 0 0 0 -0 0 -0 -0 0 0 0 0 0 0 0 0 0 0 0 0 0 0 0 0 0 -0 -0 -0 0 0 0 0
0 0 0 0 0 0 0 0 0 0 0 0 0 0 0 0 0 0 0 0 0 0 0 0 0 0 0 -0 -0 -0 0 0 0 0 0 0 0 0 0 0 0 0 0 0 0 0 0 0 0 0 0 0 0 0
0 0 0 0 0 0 0 0 0 0 0 0 0 0 0 0 0 0 0 0 0 0 0 0 0 0 -0 -0 -0 -0 -0 -0 0 0 0 0 0 0 0 0 0 0 0 0 0 0 0 0 0 0 0 0 0 0
0 0 0 0 0 0 0 0 0 0 0 0 0 0 0 0 0 0 0 0 0 0 0 0 0 0 0 -0 0 0 0 -0 -0 -0 0 0 0 0 0 0 0 0 0 0 0 0 0 0 0 0 0 0 0 0
0 0 0 0 0 0 0 0 0 0 0 0 0 0 0 0 0 0 0 0 0 0 0 0 0 0 0 0 0 0 0 0 -0 0 -0 -0 0 0 0 0 0 0 0 0 0 0 0 0 0 0 0 0 0 0
Wind_Speed_500mb
40 40 38 38 41 42 41 43 45 45 43 42 41 38 34 29 23 16 17 23 26 26 57 53 43 35 26 23 8 20 22 8 14 6 5 5 5 7 11 20 14 7 9 6 6 9 6 18 8 3 16 26 45 43
40 38 37 38 42 44 45 46 46 45 44 43 41 40 36 27 18 19 25 17 28 40 51 65 63 61 60 56 35 12 14 20 10 6 5 7 7 7 16 8 12 7 12 9 8 9 31 35 26 28 29 38 40 51
40 37 37 39 42 43 45 47 46 45 44 44 42 40 38 32 18 22 26 27 32 44 60 36 26 23 24 33 42 26 18 19 12 5 11 7 10 5 9 13 26 13 21 12 19 16 29 43 27 36 32 37 55 48
39 38 38 39 42 44 46 46 45 44 44 45 44 42 38 31 27 29 32 25 27 20 16 12 13 20 24 28 33 43 39 13 15 7 7 6 9 16 13 22 23 27 26 20 28 19 42 38 47 53 43 46 57 56
39 38 36 38 43 46 47 47 45 46 44 44 44 41 38 39 39 39 41 36 36 29 14 33 57 16 16 26 35 33 48 38 21 5 8 7 11 18 22 24 20 18 17 11 14 35 33 42 50 47 53 56 55 48
37 37 35 39 44 47 49 50 48 47 46 44 44 45 45 44 39 20 13 11 29 34 12 8 24 21 20 17 24 34 41 33 23 9 9 11 20 12 9 19 25 14 27 17 21 35 41 45 47 57 45 50 43 37
36 34 36 39 44 49 49 50 49 48 47 45 45 48 47 37 29 21 11 4 13 33 9 12 11 11 16 13 10 11 26 21 18 8 13 19 23 16 9 24 36 18 22 18 24 35 39 43 35 44 42 42 39 46
33 33 39 42 46 50 50 49 49 48 48 46 46 45 39 17 13 23 28 34 20 17 11 7 10 23 21 18 13 19 16 22 16 11 11 10 10 12 10 23 12 15 20 21 29 31 32 33 35 41 45 37 47 47
31 35 41 44 46 46 47 48 49 48 47 45 40 28 11 4 7 8 14 23 29 26 9 9 6 7 9 18 4 16 16 8 12 8 9 13 9 11 22 18 8 15 16 28 30 30 35 36 38 39 40 40 41 47
31 37 42 46 44 41 43 44 44 44 44 33 19 8 7 4 16 13 11 9 16 16 16 10 29 15 17 21 9 8 12 4 5 12 13 8 18 36 29 22 6 7 16 25 30 37 40 40 40 41 40 38 34 39
35 38 41 41 38 37 39 39 38 41 30 22 12 8 16 18 9 13 9 10 11 8 15 17 34 27 24 12 6 11 6 6 6 6 7 7 4 5 7 16 14 7 14 21 27 29 31 29 27 34 38 38 39 51
38 36 39 28 32 34 35 32 33 29 22 26 26 28 19 5 12 9 6 9 9 7 10 11 14 16 7 9 10 7 4 2 10 3 5 6 3 13 10 11 13 8 14 20 27 29 31 26 27 31 40 45 43 36
32 36 28 24 29 32 30 25 31 32 33 10 5 6 5 6 3 9 10 7 7 18 25 26 5 9 9 9 10 5 8 10 1 4 5 5 7 7 8 12 5 8 14 20 25 28 30 27 29 32 36 39 44 50
32 28 20 24 26 26 24 28 29 29 11 7 7 6 8 7 5 5 13 13 12 19 27 28 21 7 7 4 3 6 9 6 5 6 4 3 13 6 11 16 5 9 13 20 24 26 29 29 32 34 35 35 34 37
26 17 19 21 18 20 24 27 26 12 7 8 8 7 8 15 29 27 23 16 19 18 27 22 17 24 7 6 4 5 7 6 4 4 7 18 11 3 5 13 5 10 8 19 20 23 27 28 28 34 34 33 34 33
14 13 15 13 17 20 24 21 9 4 4 6 9 12 23 28 33 37 38 38 30 30 36 19 7 10 8 7 7 7 4 6 5 10 25 26 14 3 6 5 9 9 9 15 17 20 23 27 28 29 32 36 36 37
10 7 15 14 15 17 18 3 4 1 3 6 8 22 27 25 32 38 41 35 37 41 18 12 7 7 5 5 4 5 7 12 27 35 38 29 29 12 5 5 7 8 7 11 15 17 21 23 26 30 34 36 34 34
10 15 13 11 9 7 2 3 1 3 6 13 18 24 26 28 34 36 33 30 30 28 28 12 11 14 10 11 9 8 18 26 34 30 33 33 31 26 10 9 10 13 9 9 13 16 17 19 24 27 28 29 34 33
19 15 9 3 4 6 2 2 2 6 7 14 14 22 26 34 32 24 27 27 27 28 24 16 9 9 8 4 12 31 38 44 43 42 31 28 23 34 30 9 17 16 16 12 9 13 16 20 22 23 25 27 31 32
12 8 4 1 6 3 2 4 1 6 9 14 17 22 29 25 30 27 25 25 17 14 12 5 11 27 31 38 38 32 32 34 40 40 42 45 36 32 32 27 9 13 18 17 15 17 16 18 18 20 23 27 30 34
10 5 2 7 3 4 4 3 7 7 11 14 17 24 21 22 21 28 29 35 29 15 15 22 41 44 40 34 33 32 33 36 40 35 39 43 39 34 31 25 22 24 23 21 17 16 17 16 18 20 22 25 27 29
13 10 8 6 5 5 4 4 9 14 8 13 17 18 12 15 19 21 13 21 12 16 25 35 40 42 41 36 38 34 35 37 36 34 31 34 37 34 34 22 24 26 28 23 21 19 19 21 21 21 22 28 27 25
10 9 8 6 6 6 5 3 7 4 6 13 15 9 10 9 13 9 8 13 15 25 30 35 38 34 35 33 30 31 37 42 39 36 34 34 34 32 33 30 30 16 33 30 26 24 24 25 27 25 26 23 27 29
14 8 8 9 9 5 4 7 4 4 7 6 6 3 5 5 7 9 6 8 22 30 37 43 46 46 40 37 38 41 43 43 46 47 35 35 34 29 30 23 28 31 29 40 39 34 30 29 30 27 26 27 25 26
5 6 10 7 10 7 8 6 1 3 5 5 2 1 1 2 1 5 5 16 30 35 41 44 50 42 42 44 46 46 48 51 56 59 45 29 29 29 27 26 26 22 24 29 44 40 37 34 31 29 31 30 30 31
8 13 17 16 12 9 7 5 7 6 4 2 4 3 4 2 4 5 8 20 27 33 43 44 44 43 49 51 52 56 63 55 48 42 32 19 18 23 30 29 26 26 27 37 44 39 40 38 36 35 33 34 37 35
9 13 14 11 6 8 7 5 6 5 6 5 3 2 3 3 4 6 9 16 25 32 32 33 34 37 45 51 55 59 61 59 43 36 21 7 7 12 17 21 26 24 18 35 43 42 44 44 41 39 37 35 37 35
12 12 17 20 12 5 5 6 6 6 5 3 5 3 5 2 3 7 8 17 25 28 28 28 29 32 38 46 49 62 75 67 58 37 10 21 13 15 21 27 34 29 26 37 43 47 46 45 44 43 41 40 39 36
12 17 15 16 14 8 12 10 7 6 1 4 4 4 7 5 1 6 12 18 19 23 28 32 35 34 32 37 46 54 71 83 84 74 69 64 54 34 26 22 33 25 28 28 38 45 49 48 47 46 43 40 38 38
18 23 12 17 12 12 12 15 7 6 3 2 5 10 8 8 7 6 8 13 17 22 24 26 31 36 39 43 47 53 53 67 75 72 65 65 57 49 42 27 20 22 28 34 42 52 53 55 54 52 46 43 41 42
25 21 12 14 10 11 14 13 9 5 5 7 7 11 14 14 11 9 16 15 15 16 22 24 27 33 38 41 44 48 52 59 62 67 68 66 57 46 40 37 21 14 6 19 41 57 64 67 65 57 53 48 45 44
21 18 16 8 12 14 12 11 11 9 12 10 12 13 17 16 10 3 14 15 15 20 24 24 25 28 31 34 34 33 38 43 57 62 64 67 68 62 47 40 33 27 17 10 19 43 56 67 67 65 58 50 46 42
16 21 15 8 10 15 15 14 9 9 7 8 6 6 6 7 8 6 5 13 14 17 21 22 19 25 23 31 35 33 35 35 41 45 51 58 62 62 58 42 36 31 24 8 18 28 33 37 41 41 45 46 43 41
Wind_Direction_500mb
311 317 324 326 329 330 330 332 333 332 332 333 332 332 329 325 318 307 276 270 263 267 281 281 279 280 279 246 253 307 313 218 274 247 249 321 293 303 290 293 292 265 314 311 285 275 337 314 346 300 305 304 317 306
306 310 321 325 327 327 326 328 329 330 329 327 327 325 325 320 312 310 294 283 275 265 263 285 281 270 258 248 249 231 281 320 291 297 310 316 272 279 290 289 318 302 331 282 212 270 293 298 306 296 290 316 314 307
303 310 316 321 323 325 326 325 326 328 328 326 325 323 320 318 292 282 283 287 284 285 295 272 265 274 239 233 234 228 248 231 242 297 340 314 281 285 276 282 299 297 298 271 309 335 331 345 324 317 326 319 313 302
302 306 312 317 320 322 324 324 325 327 326 323 323 321 317 313 300 287 281 277 267 278 284 314 300 277 249 239 232 227 232 264 267 246 242 250 261 296 286 287 291 284 295 295 297 318 330 324 331 326 325 325 318 312
299 303 309 316 319 322 322 323 325 324 324 321 320 318 316 309 300 291 282 269 249 227 302 304 305 300 243 227 226 227 228 236 252 254 231 254 276 287 281 272 273 281 273 311 303 313 325 321 320 336 330 317 308 298
293 302 310 315 318 321 322 321 323 322 321 320 317 315 312 310 301 301 310 230 220 215 280 287 304 288 219 227 223 224 226 230 230 226 246 243 255 282 278 294 301 359 310 302 306 310 318 322 340 337 318 324 326 320
292 304 305 312 320 322 320 318 320 321 321 319 315 312 310 304 281 216 291 141 199 214 256 281 279 262 216 189 224 210 205 212 216 225 232 251 263 231 252 274 295 334 286 328 311 325 334 350 344 337 338 338 335 335
293 302 305 307 311 317 318 317 318 321 322 321 316 312 311 300 272 249 250 254 233 208 243 264 273 269 207 216 195 185 192 206 217 231 234 233 247 234 258 271 302 317 328 315 347 343 351 341 345 351 353 348 343 353
295 303 305 306 308 312 315 316 320 323 326 325 319 316 319 283 240 259 257 241 238 224 260 229 261 302 257 267 246 181 182 200 223 221 229 225 225 231 255 303 315 329 313 352 348 353 351 352 359 7 0 359 358 2
293 298 304 305 306 313 315 319 323 328 333 339 0 299 224 195 247 274 258 231 212 219 226 253 246 258 293 294 294 202 175 233 236 228 220 243 255 260 279 275 146 336 350 0 356 359 356 0 9 7 12 4 2 14
290 295 299 301 308 313 316 322 328 336 356 353 323 277 289 289 291 242 234 223 183 227 216 234 237 243 263 257 263 263 213 197 257 167 232 221 275 85 19 79 121 62 1 8 10 7 5 12 21 20 19 27 26 23
287 293 293 300 307 309 316 327 333 343 326 309 297 291 308 313 232 237 238 261 214 259 184 257 224 207 245 240 263 254 288 279 254 239 263 272 59 38 94 106 97 57 24 16 20 17 13 28 22 33 38 46 39 30
285 289 289 299 300 308 317 321 331 333 334 318 277 273 258 212 286 251 232 203 287 356 1 344 303 226 195 236 277 270 233 231 356 246 266 295 104 67 112 99 106 50 33 25 25 27 26 25 30 28 34 31 39 36
281 281 290 293 300 305 312 322 333 339 344 284 281 268 253 209 243 303 289 331 350 332 341 341 323 290 138 196 296 256 272 258 248 207 252 336 25 88 128 142 81 56 22 35 27 32 36 27 33 37 34 39 42 47
275 281 285 289 299 311 314 320 326 337 295 277 277 254 248 330 324 327 329 316 338 335 331 316 286 245 166 233 218 267 329 311 244 261 358 8 359 49 110 112 149 88 33 40 32 38 41 46 36 37 38 44 51 48
262 278 271 292 310 314 315 331 354 250 244 257 251 275 303 318 310 315 313 327 324 328 316 299 280 307 231 183 198 215 220 205 294 345 341 14 11 12 243 180 116 122 61 49 48 51 52 52 50 46 48 50 54 61
235 213 267 299 314 322 342 50 60 151 280 267 286 303 291 309 314 315 317 310 309 316 301 305 269 261 225 222 237 32 327 0 353 348 345 349 350 346 197 185 148 126 104 67 65 68 65 60 59 51 48 49 57 61
172 257 269 300 327 12 288 45 7 251 245 246 279 331 333 327 315 307 304 294 291 289 292 303 307 281 300 350 30 353 334 16 9 342 321 329 338 332 289 206 194 162 144 94 81 81 69 63 60 61 58 50 53 58
201 220 273 281 8 116 129 186 268 279 290 302 316 337 329 317 314 313 304 292 276 275 279 281 280 327 14 22 322 348 350 346 334 324 334 343 354 348 328 256 196 171 168 142 108 89 86 80 77 75 76 80 78 72
203 204 168 127 85 142 197 190 241 266 278 334 308 326 327 328 326 312 310 306 291 284 249 282 8 0 351 347 351 346 331 329 337 335 333 337 346 333 336 309 192 186 176 155 134 119 107 98 89 90 88 84 80 79
124 230 161 108 196 180 235 268 246 266 306 301 319 325 323 344 359 20 8 31 41 15 5 357 348 346 345 340 339 336 333 334 327 319 314 319 321 315 315 316 232 196 187 175 161 144 128 123 112 103 100 96 91 90
212 177 155 153 174 201 254 228 289 308 283 294 317 315 332 1 22 27 50 40 49 18 3 347 345 342 343 340 345 344 333 330 323 320 318 315 312 308 309 296 271 189 181 189 175 159 142 137 134 127 121 109 102 103
169 130 150 168 191 201 249 259 258 298 303 322 323 334 14 43 15 23 74 37 33 9 1 354 346 345 342 341 343 347 344 336 330 323 315 308 303 299 299 293 281 248 178 184 180 167 156 156 144 139 137 131 121 109
140 162 184 193 187 200 224 212 211 253 259 290 341 342 56 51 9 39 69 49 1 357 356 355 355 350 350 351 348 342 341 335 323 315 309 302 298 299 296 296 286 287 205 179 180 171 167 156 156 151 150 142 136 130
174 183 166 211 196 194 208 208 243 291 258 348 335 354 54 330 342 78 47 10 354 353 349 351 356 354 349 341 339 338 340 338 327 315 315 299 292 299 309 291 278 251 222 214 182 174 167 168 161 162 162 159 154 149
212 195 187 191 168 206 181 202 183 242 308 257 225 338 325 327 80 71 29 351 348 343 348 350 349 350 356 354 346 344 350 346 335 325 324 307 285 299 304 307 307 257 224 188 188 174 175 174 172 169 168 167 164 159
199 212 190 202 190 169 203 187 259 211 223 237 128 232 59 359 92 87 1 3 345 345 348 351 348 347 351 356 0 4 6 10 8 4 29 37 21 345 309 284 278 278 259 203 192 184 183 180 179 174 173 172 170 168
225 195 176 175 162 150 179 215 209 216 220 142 260 129 118 105 41 2 339 340 351 353 355 359 359 357 351 359 4 10 17 19 28 33 43 37 20 331 290 264 245 260 251 215 199 190 186 184 182 179 178 174 172 173
199 191 166 164 148 171 199 217 221 182 262 288 332 97 127 122 52 356 350 353 351 355 2 5 4 5 3 3 11 17 19 21 21 19 19 15 13 3 344 296 262 243 204 215 208 195 188 185 184 182 178 175 174 171
179 164 167 178 173 200 186 188 189 162 149 126 119 130 99 113 88 40 18 6 3 3 5 8 4 8 9 6 5 12 13 19 25 22 9 9 3 2 357 337 290 234 211 211 207 195 189 182 182 176 172 173 172 168
166 167 164 180 203 185 171 168 167 165 187 169 170 196 163 155 142 55 33 26 11 6 13 17 15 10 11 9 6 5 7 15 14 18 20 21 17 13 10 6 345 256 251 234 188 184 183 181 176 173 174 174 173 169
171 174 173 187 156 145 153 184 167 195 184 197 184 156 154 172 146 108 7 28 27 22 18 13 12 7 5 8 6 4 4 3 11 14 16 19 22 20 18 23 17 18 261 245 143 167 177 178 175 174 170 168 167 165
168 165 178 194 186 179 165 165 174 173 172 190 146 126 127 113 99 119 39 26 26 33 26 7 7 4 3 5 4 4 6 6 6 14 18 21 24 26 28 30 34 37 46 107 164 144 153 157 155 159 155 152 151 151
Wind_Speed_850mb
40 40 38 38 41 42 41 43 45 45 43 42 41 38 34 29 23 16 17 23 26 26 57 53 43 35 26 23 8 20 22 8 14 6 5 5 5 7 11 20 14 7 9 6 6 9 6 18 8 3 16 26 45 43
40 38 37 38 42 44 45 46 46 45 44 43 41 40 36 27 18 19 25 17 28 40 51 65 63 61 60 56 35 12 14 20 10 6 5 7 7 7 16 8 12 7 12 9 8 9 31 35 26 28 29 38 40 51
40 37 37 39 42 43 45 47 46 45 44 44 42 40 38 32 18 22 26 27 32 44 60 36 26 23 24 33 42 26 18 19 12 5 11 7 10 5 9 13 26 13 21 12 19 16 29 43 27 36 32 37 55 48
39 38 38 39 42 44 46 46 45 44 44 45 44 42 38 31 27 29 32 25 27 20 16 12 13 20 24 28 33 43 39 13 15 7 7 6 9 16 13 22 23 27 26 20 28 19 42 38 47 53 43 46 57 56
39 38 36 38 43 46 47 47 45 46 44 44 44 41 38 39 39 39 41 36 36 29 14 33 57 16 16 26 35 33 48 38 21 5 8 7 11 18 22 24 20 18 17 11 14 35 33 42 50 47 53 56 55 48
37 37 35 39 44 47 49 50 48 47 46 44 44 45 45 44 39 20 13 11 29 34 12 8 24 21 20 17 24 34 41 33 23 9 9 11 20 12 9 19 25 14 27 17 21 35 41 45 47 57 45 50 43 37
36 34 36 39 44 49 49 50 49 48 47 45 45 48 47 37 29 21 11 4 13 33 9 12 11 11 16 13 10 11 26 21 18 8 13 19 23 16 9 24 36 18 22 18 24 35 39 43 35 44 42 42 39 46
33 33 39 42 46 50 50 49 49 48 48 46 46 45 39 17 13 23 28 34 20 17 11 7 10 23 21 18 13 19 16 22 16 11 11 10 10 12 10 23 12 15 20 21 29 31 32 33 35 41 45 37 47 47
31 35 41 44 46 46 47 48 49 48 47 45 40 28 11 4 7 8 14 23 29 26 9 9 6 7 9 18 4 16 16 8 12 8 9 13 9 11 22 18 8 15 16 28 30 30 35 36 38 39 40 40 41 47
31 37 42 46 44 41 43 44 44 44 44 33 19 8 7 4 16 13 11 9 16 16 16 10 29 15 17 21 9 8 12 4 5 12 13 8 18 36 29 22 6 7 16 25 30 37 40 40 40 41 40 38 34 39
35 38 41 41 38 37 39 39 38 41 30 22 12 8 16 18 9 13 9 10 11 8 15 17 34 27 24 12 6 11 6 6 6 6 7 7 4 5 7 16 14 7 14 21 27 29 31 29 27 34 38 38 39 51
38 36 39 28 32 34 35 32 33 29 22 26 26 28 19 5 12 9 6 9 9 7 10 11 14 16 7 9 10 7 4 2 10 3 5 6 3 13 10 11 13 8 14 20 27 29 31 26 27 31 40 45 43 36
32 36 28 24 29 32 30 25 31 32 33 10 5 6 5 6 3 9 10 7 7 18 25 26 5 9 9 9 10 5 8 10 1 4 5 5 7 7 8 12 5 8 14 20 25 28 30 27 29 32 36 39 44 50
32 28 20 24 26 26 24 28 29 29 11 7 7 6 8 7 5 5 13 13 12 19 27 28 21 7 7 4 3 6 9 6 5 6 4 3 13 6 11 16 5 9 13 20 24 26 29 29 32 34 35 35 34 37
26 17 19 21 18 20 24 27 26 12 7 8 8 7 8 15 29 27 23 16 19 18 27 22 17 24 7 6 4 5 7 6 4 4 7 18 11 3 5 13 5 10 8 19 20 23 27 28 28 34 34 33 34 33
14 13 15 13 17 20 24 21 9 4 4 6 9 12 23 28 33 37 38 38 30 30 36 19 7 10 8 7 7 7 4 6 5 10 25 26 14 3 6 5 9 9 9 15 17 20 23 27 28 29 32 36 36 37
10 7 15 14 15 17 18 3 4 1 3 6 8 22 27 25 32 38 41 35 37 41 18 12 7 7 5 5 4 5 7 12 27 35 38 29 29 12 5 5 7 8 7 11 15 17 21 23 26 30 34 36 34 34
10 15 13 11 9 7 2 3 1 3 6 13 18 24 26 28 34 36 33 30 30 28 28 12 11 14 10 11 9 8 18 26 34 30 33 33 31 26 10 9 10 13 9 9 13 16 17 19 24 27 28 29 34 33
19 15 9 3 4 6 2 2 2 6 7 14 14 22 26 34 32 24 27 27 27 28 24 16 9 9 8 4 12 31 38 44 43 42 31 28 23 34 30 9 17 16 16 12 9 13 16 20 22 23 25 27 31 32
12 8 4 1 6 3 2 4 1 6 9 14 17 22 29 25 30 27 25 25 17 14 12 5 11 27 31 38 38 32 32 34 40 40 42 45 36 32 32 27 9 13 18 17 15 17 16 18 18 20 23 27 30 34
10 5 2 7 3 4 4 3 7 7 11 14 17 24 21 22 21 28 29 35 29 15 15 22 41 44 40 34 33 32 33 36 40 35 39 43 39 34 31 25 22 24 23 21 17 16 17 16 18 20 22 25 27 29
13 10 8 6 5 5 4 4 9 14 8 13 17 18 12 15 19 21 13 21 12 16 25 35 40 42 41 36 38 34 35 37 36 34 31 34 37 34 34 22 24 26 28 23 21 19 19 21 21 21 22 28 27 25
10 9 8 6 6 6 5 3 7 4 6 13 15 9 10 9 13 9 8 13 15 25 30 35 38 34 35 33 30 31 37 42 39 36 34 34 34 32 33 30 30 16 33 30 26 24 24 25 27 25 26 23 27 29
14 8 8 9 9 5 4 7 4 4 7 6 6 3 5 5 7 9 6 8 22 30 37 43 46 46 40 37 38 41 43 43 46 47 35 35 34 29 30 23 28 31 29 40 39 34 30 29 30 27 26 27 25 26
5 6 10 7 10 7 8 6 1 3 5 5 2 1 1 2 1 5 5 16 30 35 41 44 50 42 42 44 46 46 48 51 56 59 45 29 29 29 27 26 26 22 24 29 44 40 37 34 31 29 31 30 30 31
8 13 17 16 12 9 7 5 7 6 4 2 4 3 4 2 4 5 8 20 27 33 43 44 44 43 49 51 52 56 63 55 48 42 32 19 18 23 30 29 26 26 27 37 44 39 40 38 36 35 33 34 37 35
9 13 14 11 6 8 7 5 6 5 6 5 3 2 3 3 4 6 9 16 25 32 32 33 34 37 45 51 55 59 61 59 43 36 21 7 7 12 17 21 26 24 18 35 43 42 44 44 41 39 37 35 37 35
12 12 17 20 12 5 5 6 6 6 5 3 5 3 5 2 3 7 8 17 25 28 28 28 29 32 38 46 49 62 75 67 58 37 10 21 13 15 21 27 34 29 26 37 43 47 46 45 44 43 41 40 39 36
12 17 15 16 14 8 12 10 7 6 1 4 4 4 7 5 1 6 12 18 19 23 28 32 35 34 32 37 46 54 71 83 84 74 69 64 54 34 26 22 33 25 28 28 38 45 49 48 47 46 43 40 38 38
18 23 12 17 12 12 12 15 7 6 3 2 5 10 8 8 7 6 8 13 17 22 24 26 31 36 39 43 47 53 53 67 75 72 65 65 57 49 42 27 20 22 28 34 42 52 53 55 54 52 46 43 41 42
25 21 12 14 10 11 14 13 9 5 5 7 7 11 14 14 11 9 16 15 15 16 22 24 27 33 38 41 44 48 52 59 62 67 68 66 57 46 40 37 21 14 6 19 41 57 64 67 65 57 53 48 45 44
21 18 16 8 12 14 12 11 11 9 12 10 12 13 17 16 10 3 14 15 15 20 24 24 25 28 31 34 34 33 38 43 57 62 64 67 68 62 47 40 33 27 17 10 19 43 56 67 67 65 58 50 46 42
16 21 15 8 10 15 15 14 9 9 7 8 6 6 6 7 8 6 5 13 14 17 21 22 19 25 23 31 35 33 35 35 41 45 51 58 62 62 58 42 36 31 24 8 18 28 33 37 41 41 45 46 43 41
Wind_Direction_850mb
311 317 324 326 329 330 330 332 333 332 332 333 332 332 329 325 318 307 276 270 263 267 281 281 279 280 279 246 253 307 313 218 274 247 249 321 293 303 290 293 292 265 314 311 285 275 337 314 346 300 305 304 317 306
306 310 321 325 327 327 326 328 329 330 329 327 327 325 325 320 312 310 294 283 275 265 263 285 281 270 258 248 249 231 281 320 291 297 310 316 272 279 290 289 318 302 331 282 212 270 293 298 306 296 290 316 314 307
303 310 316 321 323 325 326 325 326 328 328 326 325 323 320 318 292 282 283 287 284 285 295 272 265 274 239 233 234 228 248 231 242 297 340 314 281 285 276 282 299 297 298 271 309 335 331 345 324 317 326 319 313 302
302 306 312 317 320 322 324 324 325 327 326 323 323 321 317 313 300 287 281 277 267 278 284 314 300 277 249 239 232 227 232 264 267 246 242 250 261 296 286 287 291 284 295 295 297 318 330 324 331 326 325 325 318 312
299 303 309 316 319 322 322 323 325 324 324 321 320 318 316 309 300 291 282 269 249 227 302 304 305 300 243 227 226 227 228 236 252 254 231 254 276 287 281 272 273 281 273 311 303 313 325 321 320 336 330 317 308 298
293 302 310 315 318 321 322 321 323 322 321 320 317 315 312 310 301 301 310 230 220 215 280 287 304 288 219 227 223 224 226 230 230 226 246 243 255 282 278 294 301 359 310 302 306 310 318 322 340 337 318 324 326 320
292 304 305 312 320 322 320 318 320 321 321 319 315 312 310 304 281 216 291 141 199 214 256 281 279 262 216 189 224 210 205 212 216 225 232 251 263 231 252 274 295 334 286 328 311 325 334 350 344 337 338 338 335 335
293 302 305 307 311 317 318 317 318 321 322 321 316 312 311 300 272 249 250 254 233 208 243 264 273 269 207 216 195 185 192 206 217 231 234 233 247 234 258 271 302 317 328 315 347 343 351 341 345 351 353 348 343 353
295 303 305 306 308 312 315 316 320 323 326 325 319 316 319 283 240 259 257 241 238 224 260 229 261 302 257 267 246 181 182 200 223 221 229 225 225 231 255 303 315 329 313 352 348 353 351 352 359 7 0 359 358 2
293 298 304 305 306 313 315 319 323 328 333 339 0 299 224 195 247 274 258 231 212 219 226 253 246 258 293 294 294 202 175 233 236 228 220 243 255 260 279 275 146 336 350 0 356 359 356 0 9 7 12 4 2 14
290 295 299 301 308 313 316 322 328 336 356 353 323 277 289 289 291 242 234 223 183 227 216 234 237 243 263 257 263 263 213 197 257 167 232 221 275 85 19 79 121 62 1 8 10 7 5 12 21 20 19 27 26 23
287 293 293 300 307 309 316 327 333 343 326 309 297 291 308 313 232 237 238 261 214 259 184 257 224 207 245 240 263 254 288 279 254 239 263 272 59 38 94 106 97 57 24 16 20 17 13 28 22 33 38 46 39 30
285 289 289 299 300 308 317 321 331 333 334 318 277 273 258 212 286 251 232 203 287 356 1 344 303 226 195 236 277 270 233 231 356 246 266 295 104 67 112 99 106 50 33 25 25 27 26 25 30 28 34 31 39 36
281 281 290 293 300 305 312 322 333 339 344 284 281 268 253 209 243 303 289 331 350 332 341 341 323 290 138 196 296 256 272 258 248 207 252 336 25 88 128 142 81 56 22 35 27 32 36 27 33 37 34 39 42 47
275 281 285 289 299 311 314 320 326 337 295 277 277 254 248 330 324 327 329 316 338 335 331 316 286 245 166 233 218 267 329 311 244 261 358 8 359 49 110 112 149 88 33 40 32 38 41 46 36 37 38 44 51 48
262 278 271 292 310 314 315 331 354 250 244 257 251 275 303 318 310 315 313 327 324 328 316 299 280 307 231 183 198 215 220 205 294 345 341 14 11 12 243 180 116 122 61 49 48 51 52 52 50 46 48 50 54 61
235 213 267 299 314 322 342 50 60 151 280 267 286 303 291 309 314 315 317 310 309 316 301 305 269 261 225 222 237 32 327 0 353 348 345 349 350 346 197 185 148 126 104 67 65 68 65 60 59 51 48 49 57 61
172 257 269 300 327 12 288 45 7 251 245 246 279 331 333 327 315 307 304 294 291 289 292 303 307 281 300 350 30 353 334 16 9 342 321 329 338 332 289 206 194 162 144 94 81 81 69 63 60 61 58 50 53 58
201 220 273 281 8 116 129 186 268 279 290 302 316 337 329 317 314 313 304 292 276 275 279 281 280 327 14 22 322 348 350 346 334 324 334 343 354 348 328 256 196 171 168 142 108 89 86 80 77 75 76 80 78 72
203 204 168 127 85 142 197 190 241 266 278 334 308 326 327 328 326 312 310 306 291 284 249 282 8 0 351 347 351 346 331 329 337 335 333 337 346 333 336 309 192 186 176 155 134 119 107 98 89 90 88 84 80 79
124 230 161 108 196 180 235 268 246 266 306 301 319 325 323 344 359 20 8 31 41 15 5 357 348 346 345 340 339 336 333 334 327 319 314 319 321 315 315 316 232 196 187 175 161 144 128 123 112 103 100 96 91 90
212 177 155 153 174 201 254 228 289 308 283 294 317 315 332 1 22 27 50 40 49 18 3 347 345 342 343 340 345 344 333 330 323 320 318 315 312 308 309 296 271 189 181 189 175 159 142 137 134 127 121 109 102 103
169 130 150 168 191 201 249 259 258 298 303 322 323 334 14 43 15 23 74 37 33 9 1 354 346 345 342 341 343 347 344 336 330 323 315 308 303 299 299 293 281 248 178 184 180 167 156 156 144 139 137 131 121 109
140 162 184 193 187 200 224 212 211 253 259 290 341 342 56 51 9 39 69 49 1 357 356 355 355 350 350 351 348 342 341 335 323 315 309 302 298 299 296 296 286 287 205 179 180 171 167 156 156 151 150 142 136 130
174 183 166 211 196 194 208 208 243 291 258 348 335 354 54 330 342 78 47 10 354 353 349 351 356 354 349 341 339 338 340 338 327 315 315 299 292 299 309 291 278 251 222 214 182 174 167 168 161 162 162 159 154 149
212 195 187 191 168 206 181 202 183 242 308 257 225 338 325 327 80 71 29 351 348 343 348 350 349 350 356 354 346 344 350 346 335 325 324 307 285 299 304 307 307 257 224 188 188 174 175 174 172 169 168 167 164 159
199 212 190 202 190 169 203 187 259 211 223 237 128 232 59 359 92 87 1 3 345 345 348 351 348 347 351 356 0 4 6 10 8 4 29 37 21 345 309 284 278 278 259 203 192 184 183 180 179 174 173 172 170 168
225 195 176 175 162 150 179 215 209 216 220 142 260 129 118 105 41 2 339 340 351 353 355 359 359 357 351 359 4 10 17 19 28 33 43 37 20 331 290 264 245 260 251 215 199 190 186 184 182 179 178 174 172 173
199 191 166 164 148 171 199 217 221 182 262 288 332 97 127 122 52 356 350 353 351 355 2 5 4 5 3 3 11 17 19 21 21 19 19 15 13 3 344 296 262 243 204 215 208 195 188 185 184 182 178 175 174 171
179 164 167 178 173 200 186 188 189 162 149 126 119 130 99 113 88 40 18 6 3 3 5 8 4 8 9 6 5 12 13 19 25 22 9 9 3 2 357 337 290 234 211 211 207 195 189 182 182 176 172 173 172 168
166 167 164 180 203 185 171 168 167 165 187 169 170 196 163 155 142 55 33 26 11 6 13 17 15 10 11 9 6 5 7 15 14 18 20 21 17 13 10 6 345 256 251 234 188 184 183 181 176 173 174 174 173 169
171 174 173 187 156 145 153 184 167 195 184 197 184 156 154 172 146 108 7 28 27 22 18 13 12 7 5 8 6 4 4 3 11 14 16 19 22 20 18 23 17 18 261 245 143 167 177 178 175 174 170 168 167 165
168 165 178 194 186 179 165 165 174 173 172 190 146 126 127 113 99 119 39 26 26 33 26 7 7 4 3 5 4 4 6 6 6 14 18 21 24 26 28 30 34 37 46 107 164 144 153 157 155 159 155 152 151 151